Retour au catalogue

COSMOS 546

ActifNavigationVLEO
NORAD 6350·PAYLOAD·🇷🇺 Russia

Lancé Jan 26, 1973 depuis Kapustin Yar

Loading…

Prochains Passages (prochaines 24 heures)

TLE

FraisSource: Space-Track

Époque: Sep 13, 2026, 22:13 UTC

1  6350U 73005A   26256.92577425  .00001588  00000-0  65217-4 0  9998
2  6350  50.6345  86.0833 0014635 277.8965  82.0341 15.30443579956818

Suivez COSMOS 546 en temps réel avec AllMySat

Download on the App Store